Evansville, IN

6:26 PM CDT on September 21, 2017 (GMT -0500)
Evansville Regional

Weather History for KEVV - February, 2012

Change the Weather History Date:

Wednesday, February 8, 2012

  Actual Average Record
Temperature  
Mean Temperature 35 °F 35 °F  
Max Temperature 39 °F 44 °F 72 °F (1925)
Min Temperature 30 °F 26 °F -5 °F (1985)
Degree Days  
Heating Degree Days 30 30  
Month to date heating degree days 174 248  
Since 1 July heating degree days 2499 3027  
Cooling Degree Days 0 0  
Month to date cooling degree days 0 0  
Year to date cooling degree days 0 0  
Moisture  
Dew Point 31 °F    
Average Humidity 83    
Maximum Humidity 96    
Minimum Humidity 70    
Precipitation  
Precipitation 0.02 in 0.11 in 1.63 in (1950)
Month to date precipitation 0.46 0.94  
Year to date precipitation 3.85 4.04  
Snow  
Snow T in 0.20 in 2.80 in (1979)
Month to date snowfall T 1.2  
Since 1 July snowfall 0.3 8.1  
Snow Depth 0.00 in    
Sea Level Pressure  
Sea Level Pressure 30.36 in    
Wind  
Wind Speed 7 mph (NNW)    
Max Wind Speed 16 mph    
Max Gust Speed 20 mph    
Visibility 7 miles    
Events Rain , Snow    
T = Trace of Precipitation, MM = Missing Value Source: NWS Daily Summary

Daily Weather History Graph

Daily Weather History Graph

Search for Another Location

Airport or City:

Trip Planner

Search our weather history database for the weather conditions in past years. The results will help you decide how hot, cold, wet, or windy it might be!

Date:

Astronomy

Feb. 08, 2012 Rise Set
Actual Time 6:48 AM CST 5:20 PM CST
Civil Twilight 6:21 AM CST 5:47 PM CST
Nautical Twilight 5:49 AM CST 6:19 PM CST
Astronomical Twilight 5:19 AM CST 6:49 PM CST
Moon 6:37 PM CST (2/8) 6:53 AM CST (2/8)
Length of Visible Light 11h 26m
Length of Day
10h 32m
Full, 99% of the Moon is Illuminated
Feb 8
Full
Feb 14
Last Quarter
Feb 21
New
Feb 29
First Quarter
Mar 8
Full

Hourly Weather History & Observations

Time (CST) Temp. Windchill Dew Point Humidity Pressure Visibility Wind Dir Wind Speed Gust Speed Precip Events Conditions
12:26 AM 37.4 °F 33.8 °F 33.8 °F 87% 30.29 in 8.0 mi North 4.6 mph - 0.00 in   Overcast
12:54 AM 37.0 °F 32.4 °F 33.1 °F 86% 30.30 in 7.0 mi North 5.8 mph - 0.00 in Rain Light Rain
1:08 AM 37.4 °F 33.8 °F 33.8 °F 87% 30.29 in 7.0 mi NNE 4.6 mph - 0.00 in Rain Light Rain
1:27 AM 35.6 °F 31.7 °F 32.0 °F 87% 30.30 in 6.0 mi NNE 4.6 mph - 0.00 in Rain Light Rain
1:54 AM 35.1 °F 31.0 °F 32.0 °F 89% 30.31 in 3.0 mi NNE 4.6 mph - 0.01 in Snow Light Snow
2:54 AM 35.1 °F 32.2 °F 33.1 °F 92% 30.31 in 3.0 mi NNE 3.5 mph - 0.01 in Snow Light Snow
3:18 AM 35.6 °F 31.7 °F 32.0 °F 87% 30.30 in 4.0 mi NNE 4.6 mph - 0.00 in Snow Light Snow
3:28 AM 33.8 °F 29.6 °F 32.0 °F 93% 30.30 in 4.0 mi North 4.6 mph - 0.00 in   Overcast
3:44 AM 33.8 °F 30.8 °F 32.0 °F 93% 30.30 in 5.0 mi North 3.5 mph - 0.00 in   Overcast
3:54 AM 34.0 °F 31.0 °F 32.0 °F 92% 30.31 in 5.0 mi North 3.5 mph - 0.00 in   Overcast
4:54 AM 34.0 °F 29.8 °F 30.9 °F 89% 30.31 in 5.0 mi North 4.6 mph - N/A   Overcast
5:54 AM 33.1 °F - 30.9 °F 92% 30.33 in 6.0 mi Calm Calm - 0.00 in Rain Light Rain
6:49 AM 33.8 °F 29.6 °F 32.0 °F 93% 30.33 in 2.5 mi NW 4.6 mph - 0.00 in   Overcast
6:54 AM 34.0 °F 28.8 °F 32.0 °F 92% 30.35 in 2.5 mi NW 5.8 mph - 0.00 in   Overcast
7:01 AM 33.8 °F 28.6 °F 32.0 °F 93% 30.34 in 5.0 mi NNW 5.8 mph - N/A   Overcast
7:23 AM 35.6 °F 31.7 °F 32.0 °F 87% 30.34 in 4.0 mi North 4.6 mph - N/A   Overcast
7:43 AM 35.6 °F 31.7 °F 32.0 °F 87% 30.35 in 4.0 mi NNW 4.6 mph - N/A   Overcast
7:54 AM 35.1 °F 30.1 °F 32.0 °F 89% 30.37 in 4.0 mi North 5.8 mph - N/A   Overcast
8:03 AM 35.6 °F 30.7 °F 32.0 °F 87% 30.36 in 2.5 mi NNW 5.8 mph - N/A   Overcast
8:54 AM 36.0 °F 30.3 °F 32.0 °F 86% 30.37 in 2.5 mi NNW 6.9 mph - N/A   Overcast
9:01 AM 35.6 °F 29.9 °F 32.0 °F 87% 30.36 in 4.0 mi Variable 6.9 mph - N/A   Overcast
9:14 AM 37.4 °F 32.1 °F 32.0 °F 81% 30.37 in 5.0 mi North 6.9 mph - N/A   Haze
9:37 AM 35.6 °F 28.6 °F 32.0 °F 87% 30.37 in 7.0 mi NNW 9.2 mph - N/A   Overcast
9:54 AM 36.0 °F 29.6 °F 32.0 °F 86% 30.38 in 6.0 mi NW 8.1 mph - N/A   Overcast
10:15 AM 35.6 °F 28.0 °F 30.2 °F 81% 30.39 in 9.0 mi NW 10.4 mph - N/A   Overcast
10:54 AM 36.0 °F 30.3 °F 30.9 °F 82% 30.40 in 6.0 mi NW 6.9 mph - N/A   Overcast
11:54 AM 37.9 °F 30.9 °F 32.0 °F 79% 30.38 in 10.0 mi NW 10.4 mph - N/A   Overcast
12:06 PM 37.4 °F 30.3 °F 30.2 °F 75% 30.37 in 10.0 mi WNW 10.4 mph - N/A   Overcast
12:49 PM 37.4 °F 30.3 °F 30.2 °F 75% 30.36 in 10.0 mi NW 10.4 mph - N/A   Overcast
12:54 PM 37.0 °F 28.9 °F 30.9 °F 79% 30.37 in 10.0 mi NW 12.7 mph - N/A   Overcast
1:30 PM 39.2 °F 32.5 °F 30.2 °F 70% 30.35 in 10.0 mi NW 10.4 mph 16.1 mph N/A   Overcast
1:47 PM 37.4 °F 30.3 °F 30.2 °F 75% 30.35 in 10.0 mi WNW 10.4 mph 19.6 mph N/A   Overcast
1:54 PM 37.0 °F 29.3 °F 30.0 °F 76% 30.36 in 10.0 mi WNW 11.5 mph - N/A   Overcast
2:54 PM 37.0 °F 32.4 °F 28.9 °F 73% 30.37 in 10.0 mi Variable 5.8 mph - N/A   Overcast
3:54 PM 37.0 °F 29.8 °F 28.9 °F 73% 30.38 in 10.0 mi NW 10.4 mph - N/A   Overcast
4:54 PM 37.0 °F 31.6 °F 28.9 °F 73% 30.37 in 10.0 mi NNW 6.9 mph - N/A   Overcast
5:54 PM 36.0 °F 29.6 °F 28.9 °F 76% 30.38 in 10.0 mi NNW 8.1 mph - N/A   Overcast
6:54 PM 35.1 °F 29.3 °F 28.9 °F 78% 30.40 in 10.0 mi NW 6.9 mph - N/A   Overcast
7:54 PM 35.1 °F 28.6 °F 28.0 °F 76% 30.40 in 10.0 mi NW 8.1 mph - N/A   Overcast
8:31 PM 33.8 °F 28.6 °F 28.4 °F 81% 30.39 in 10.0 mi NW 5.8 mph - N/A   Overcast
8:54 PM 34.0 °F 27.2 °F 27.0 °F 75% 30.41 in 10.0 mi NW 8.1 mph - N/A   Overcast
9:21 PM 33.8 °F 28.6 °F 26.6 °F 75% 30.40 in 10.0 mi NW 5.8 mph - N/A   Overcast
9:54 PM 33.1 °F 26.9 °F 26.1 °F 75% 30.41 in 10.0 mi NW 6.9 mph - N/A   Overcast
10:54 PM 30.9 °F 27.5 °F 25.0 °F 79% 30.41 in 10.0 mi WNW 3.5 mph - N/A   Overcast
11:54 PM 30.0 °F 25.2 °F 25.0 °F 82% 30.40 in 10.0 mi NW 4.6 mph - N/A   Overcast